Location: Narrabri
(30.3170°S, 149.7830°E)
Time: 18:45:36
(UTC+10:00)

Tiangong 1 - Visible Passes

Search period start: 23 May 2017 00:00
Search period end: 02 June 2017 00:00
Orbit: 324 x 350 km, 42.8° (Epoch: 22 May)

Date Brightness Start Highest point End Pass type
(mag) Time Alt. Az. Time Alt. Az. Time Alt. Az.
23 May 1.2 05:15:55 56° N 05:15:55 56° N 05:18:23 10° NE visible
24 May 2.7 05:36:10 17° NW 05:36:15 17° NW 05:38:12 10° N visible
28 May 3.2 18:30:12 10° N 18:31:14 14° NNE 18:31:14 14° NNE visible
29 May 2.6 18:49:29 10° NW 18:51:07 29° NNW 18:51:07 29° NNW visible
30 May 3.0 17:35:21 10° N 17:37:14 16° NE 17:39:08 10° E visible
30 May 3.8 19:09:58 10° W 19:10:53 17° W 19:10:53 17° W visible
31 May 1.0 17:54:34 10° NW 17:57:24 57° NE 17:59:16 19° ESE visible
01 Jun 1.8 18:14:55 10° W 18:17:40 38° SSW 18:18:46 26° SSE visible
